GSAT0215 (GALILEO 19)

Last updated on Sat Dec 13 2025 00:02:35 GMT+0000 (Coordinated Universal Time)

1 43055U 17079A 25345.89611181 .00000013 00000+0 00000+0 0 9997 2 43055 55.1303 226.6610 0001265 350.6161 9.4600 1.70473900 49794
UTC large
Height (km)
Speed (km/s)
/
Latitude / Longitude
Inclination (degrees)
Orbital Period (minutes)
Azimuth
Elevation
Range (km)
Doppler Factor

Next 0 passes for location: London (51.5072 / 0.1276)

Sorry there are no passes over London.